Wind_Speed
25 25 24 23 23 22 21 21 20 19 18 18 18 20 20 21 20 20 20 19 19 18 18 18 19 19 19 18 19 19 18 17 17 16 17 14 11 11 10 11 15 22 26 28 29 29 28 27 27 27 28 28 30 30 28 28 28 29 33 41 48 49 47 41 37 35 32 27 23 25 25 26 23 17 21 25 24 25 27 26 25 24 22 24 23 20 19 18
27 26 26 25 24 24 23 22 21 20 19 18 18 18 20 20 20 21 21 21 20 20 19 19 19 20 20 20 19 20 20 18 17 17 15 13 12 12 11 11 13 17 23 27 29 29 30 29 28 27 27 28 29 30 31 30 30 32 33 38 46 49 49 45 42 36 30 27 23 24 26 29 29 20 17 21 22 23 26 26 25 25 25 26 25 23 23 21
27 27 27 26 26 25 24 24 23 21 20 18 18 18 19 20 20 21 21 21 21 21 20 20 20 21 21 21 21 21 21 20 17 16 15 14 15 14 13 12 13 14 18 24 27 28 29 30 29 28 28 29 29 30 31 33 33 34 35 40 42 41 43 45 44 39 34 31 27 27 28 28 31 27 18 15 17 20 20 19 21 24 26 28 27 25 26 25
28 28 27 27 27 26 26 25 25 24 22 20 19 18 18 19 20 21 22 22 22 22 22 21 21 21 22 23 23 22 23 21 18 17 17 17 17 16 15 14 13 14 15 19 24 27 29 29 30 29 30 29 30 31 32 34 34 35 38 42 40 35 37 39 39 41 39 35 33 31 31 30 32 34 32 24 20 22 17 10 13 18 21 26 27 27 27 27
29 29 29 29 28 27 26 26 26 26 25 23 21 20 19 19 20 21 21 22 23 23 23 23 22 22 22 23 23 23 24 23 19 19 20 19 18 17 17 16 15 14 14 16 19 24 27 29 29 30 31 30 30 32 34 34 33 36 40 40 37 35 36 34 32 35 37 38 40 36 34 35 34 38 42 38 33 30 23 15 14 17 18 20 23 26 28 28
30 31 31 30 30 29 28 28 27 27 26 26 24 22 21 19 19 20 21 22 22 23 23 24 24 23 23 23 24 23 23 23 21 22 22 20 19 17 17 17 15 14 14 15 17 20 24 27 29 30 31 31 31 32 33 32 33 37 40 39 37 36 36 32 29 31 32 35 40 41 40 39 38 41 44 45 43 40 33 26 21 18 19 20 21 24 27 29
30 31 31 32 31 31 31 30 30 29 28 28 27 25 24 22 21 20 20 21 22 22 23 24 24 24 24 24 24 23 23 22 22 22 22 20 19 18 17 17 17 16 15 15 16 18 21 25 28 29 30 31 31 31 31 31 33 37 39 38 38 35 32 29 28 30 31 32 34 39 43 43 43 45 45 46 45 41 37 35 32 27 22 23 24 25 26 27
29 30 31 32 33 33 33 32 32 31 31 30 29 28 27 25 23 22 21 21 21 22 22 23 24 25 25 25 25 24 23 23 22 22 22 21 20 19 18 18 18 18 17 15 15 18 20 22 25 27 29 30 30 29 29 29 30 36 39 37 36 33 30 28 30 32 32 31 32 34 38 40 42 44 45 44 41 37 33 32 38 39 32 27 27 29 29 27
29 29 30 31 32 32 33 33 33 33 32 32 31 30 29 27 26 25 24 23 22 22 22 22 24 24 25 25 26 26 24 23 22 21 22 22 22 21 20 19 19 19 19 17 16 17 18 20 23 26 29 31 30 30 29 28 28 33 37 36 36 33 31 31 34 36 35 33 34 36 36 37 37 40 44 42 39 37 33 31 35 42 43 36 31 31 31 29
28 29 29 29 29 30 30 31 32 32 32 32 32 32 31 29 28 27 26 25 24 24 23 22 23 24 25 25 26 26 24 23 23 22 22 22 23 22 21 19 19 20 20 19 17 17 18 21 23 26 29 30 30 30 29 30 31 32 33 36 37 35 36 37 37 38 38 36 36 38 38 38 36 39 45 43 40 38 35 34 34 37 43 44 41 38 36 34
27 27 28 28 28 29 29 29 30 30 31 32 31 31 31 30 29 28 27 27 26 26 25 24 24 24 25 25 25 26 25 23 24 24 23 23 22 22 22 21 20 20 20 20 19 18 18 19 21 23 24 26 29 30 29 32 36 34 33 35 37 36 37 40 41 40 39 39 39 38 40 41 41 44 47 43 42 41 37 35 35 35 38 43 46 45 44 42
26 26 26 27 27 28 28 28 29 29 30 31 31 30 30 30 29 29 28 28 27 26 26 25 25 25 25 25 25 25 26 24 24 24 24 23 22 22 22 22 21 20 20 20 19 18 17 17 20 22 22 23 26 26 27 33 36 35 34 36 37 36 37 39 40 39 40 42 41 38 41 46 47 48 47 42 43 43 40 36 35 35 35 37 42 44 45 45
25 25 25 26 26 27 27 27 28 28 29 30 30 29 29 29 28 28 27 27 27 26 26 26 26 26 27 26 25 25 26 25 25 25 24 24 22 21 21 21 21 20 20 20 19 18 17 17 19 22 24 23 22 21 24 28 30 31 32 34 36 36 40 42 39 39 39 40 40 36 41 49 48 45 45 44 44 44 43 40 37 37 36 35 37 40 42 42
25 25 25 25 25 26 26 26 27 27 28 29 29 28 28 28 28 27 27 27 26 26 26 26 26 26 27 27 25 25 26 26 25 24 24 24 22 20 19 19 20 20 21 21 19 17 17 16 18 21 24 24 23 24 25 22 22 23 22 26 30 33 38 36 33 37 38 37 37 34 41 52 48 43 42 41 42 42 41 39 38 38 37 36 37 38 40 42
26 26 26 26 26 26 26 26 26 26 27 28 29 29 27 27 27 26 27 27 26 25 25 25 25 26 27 26 25 25 25 25 25 24 23 22 21 20 19 19 20 20 21 20 19 17 16 16 17 19 21 23 24 26 25 23 22 21 19 21 23 26 31 26 23 29 30 29 32 32 40 48 43 42 44 40 41 40 36 35 33 34 34 34 35 36 39 42
26 26 26 27 27 27 26 26 26 26 26 27 28 29 29 27 26 26 26 26 25 25 25 25 25 26 27 26 24 23 23 24 23 23 22 22 23 23 23 21 20 20 21 20 19 17 16 15 16 16 18 20 21 23 22 21 22 21 21 23 20 20 22 20 20 24 23 24 28 32 39 36 23 29 40 39 41 40 36 34 31 31 33 35 35 36 37 39
27 27 27 28 28 28 28 27 27 27 27 27 27 28 28 27 26 26 25 25 24 25 26 25 25 26 25 24 23 23 23 24 25 25 26 26 27 26 24 22 21 21 21 20 19 16 14 14 14 15 15 16 16 17 16 17 19 18 20 25 23 20 18 16 16 17 18 22 26 29 38 35 21 22 30 29 31 33 33 33 32 32 34 36 39 38 38 38
28 29 29 29 29 29 29 29 28 28 27 27 28 28 28 28 28 26 24 24 25 25 26 25 24 26 25 24 26 27 27 28 29 29 30 30 29 26 24 22 21 21 20 19 17 15 14 13 13 13 13 15 16 17 19 17 15 13 16 21 20 20 20 18 16 13 15 21 24 24 31 34 29 28 28 26 26 27 27 28 29 31 33 34 38 41 42 40
30 30 30 31 31 31 31 31 30 30 29 29 28 28 28 28 27 25 22 23 25 26 26 26 26 27 28 29 30 31 30 30 30 31 31 30 29 27 23 21 21 21 20 18 16 14 13 12 12 13 14 15 15 18 22 19 13 9 13 16 15 14 16 17 17 13 13 18 22 24 27 29 27 29 30 28 27 27 28 28 28 28 30 31 33 36 40 40
31 31 32 32 32 33 34 33 33 33 33 32 31 30 30 30 29 28 25 22 23 25 26 27 29 29 30 31 31 31 30 30 31 32 32 30 29 26 22 21 21 21 20 16 13 13 12 12 14 13 11 9 11 14 16 17 16 16 18 19 17 15 14 14 13 12 13 17 21 22 25 26 26 30 31 29 30 30 31 33 34 33 33 34 35 36 37 38
32 32 33 34 34 35 35 36 35 35 36 36 36 37 36 36 36 38 38 32 24 24 27 27 29 31 31 32 31 30 30 29 30 30 30 28 27 25 22 20 20 20 17 12 10 12 13 13 11 8 6 7 11 12 12 15 19 20 22 24 23 22 20 17 15 14 13 18 24 23 25 29 30 33 34 32 35 37 36 36 38 39 39 40 40 40 40 38
33 34 34 34 35 35 36 37 36 37 37 36 36 37 37 36 36 38 43 41 33 28 29 29 30 30 29 30 30 28 28 26 26 26 26 25 25 24 21 20 20 16 14 14 13 13 15 13 8 5 9 14 17 18 18 19 21 22 22 22 24 24 23 22 22 21 19 21 25 24 27 33 33 35 36 35 37 39 38 38 39 41 41 42 42 42 42 41
34 35 35 35 35 35 37 38 37 37 38 37 36 35 35 36 36 37 39 43 40 33 31 31 29 27 25 24 24 22 22 21 21 21 19 21 21 20 20 22 19 14 14 17 15 15 14 10 7 11 16 18 19 18 18 20 21 21 21 20 21 19 16 16 15 16 19 21 22 21 24 32 32 31 34 32 31 32 32 33 35 37 37 38 40 40 41 42
35 36 36 37 36 36 37 38 38 37 37 38 36 35 36 36 36 38 39 43 43 37 34 30 24 21 21 20 19 19 18 17 18 18 14 17 19 19 22 20 17 16 18 18 16 17 15 8 9 16 17 16 18 17 16 18 18 17 18 18 18 15 13 12 10 12 18 20 21 20 22 30 30 27 28 26 25 28 28 28 29 29 30 30 32 34 34 36
36 36 37 38 37 37 37 38 39 38 38 37 36 36 36 36 36 37 39 41 41 37 31 25 19 18 20 20 19 18 19 18 18 16 13 15 18 19 20 19 18 19 19 18 17 20 19 14 15 18 17 19 20 18 16 15 15 14 13 15 15 13 14 15 16 15 16 18 18 16 13 15 13 10 11 14 18 20 19 19 21 21 21 23 24 25 26 27
37 37 38 38 39 39 37 38 38 38 39 37 36 36 34 35 35 35 38 37 34 32 25 19 17 16 18 20 19 18 18 18 18 16 14 15 16 18 19 20 21 20 18 17 17 21 22 19 21 21 19 20 18 17 15 13 14 14 11 11 12 13 15 17 19 16 13 10 6 7 10 7 7 7 7 10 13 15 16 18 18 17 16 16 17 19 21 24
38 38 39 39 39 40 39 39 39 39 39 38 37 36 35 35 33 33 33 23 19 23 21 18 17 16 18 19 20 19 17 17 18 17 15 14 16 19 21 21 20 20 20 18 17 21 22 19 20 20 19 18 16 17 14 11 15 15 13 14 13 14 16 16 17 16 14 12 9 12 15 12 17 22 19 19 21 20 20 19 15 14 14 13 16 19 21 22
39 39 40 39 39 39 39 39 40 40 39 37 36 35 35 33 31 31 21 6 10 20 20 19 19 19 20 20 20 20 19 19 19 17 15 14 15 19 22 22 22 22 21 21 22 23 20 18 17 16 17 18 20 20 14 11 15 16 15 17 16 16 16 14 13 13 12 12 14 19 18 10 14 20 15 14 18 18 17 16 14 14 15 17 21 22 21 21
40 40 40 39 39 39 38 38 40 40 38 37 36 35 34 32 31 26 9 3 13 19 18 20 21 21 21 20 21 21 20 20 19 19 18 16 16 18 20 20 21 23 24 25 27 26 22 21 20 19 22 24 24 21 16 15 16 18 19 20 20 18 17 16 12 12 12 9 14 22 19 9 10 14 11 12 17 17 15 14 14 16 18 21 23 20 18 17
41 41 40 40 40 39 38 37 40 40 38 37 35 34 33 31 28 15 2 7 17 19 20 23 23 20 19 19 20 20 20 20 21 21 20 20 20 20 21 21 21 24 26 26 28 30 29 27 26 27 29 28 26 22 20 19 18 19 21 21 19 17 17 16 12 12 9 7 19 31 24 15 8 8 12 16 13 8 8 11 14 17 20 20 19 17 17 18
42 41 41 41 40 40 38 37 39 40 38 36 35 32 31 30 21 3 4 15 21 19 20 19 17 17 18 18 20 22 23 23 24 23 22 24 24 24 25 25 24 24 26 30 34 34 32 31 32 33 32 30 29 27 25 24 23 23 22 19 14 10 9 9 10 11 5 6 21 28 23 22 15 7 6 6 6 8 9 12 16 17 17 16 16 15 16 16
42 42 41 41 41 40 38 37 38 38 37 36 34 30 26 21 13 12 16 21 15 11 15 14 17 22 24 26 28 28 29 29 30 29 28 29 29 31 31 30 28 22 21 27 29 28 29 30 28 26 26 26 25 25 25 24 26 26 23 17 8 4 5 5 6 7 6 12 20 16 13 20 22 20 15 7 5 10 12 12 14 15 15 14 13 11 11 12
42 43 42 41 41 40 38 37 37 37 38 36 31 28 20 9 9 19 25 22 15 17 22 24 29 32 31 33 35 34 33 34 34 32 32 32 33 36 36 36 34 27 24 25 21 18 19 21 22 22 23 25 24 26 26 25 27 29 27 22 13 4 2 4 5 4 6 14 23 20 12 10 15 22 24 18 15 15 16 15 15 16 15 11 9 12 14 15
44 44 43 42 42 40 38 37 37 36 36 32 27 23 14 10 18 29 30 29 28 30 33 32 34 34 34 36 37 36 35 35 35 35 34 33 34 38 40 40 39 36 34 30 26 24 18 15 22 24 22 25 27 28 29 27 26 26 28 28 23 15 8 5 4 4 4 6 12 16 12 7 9 9 10 13 20 22 21 19 19 18 16 13 14 19 19 18
45 45 44 44 43 41 39 37 36 34 32 30 24 19 18 23 29 33 33 34 31 30 33 34 33 33 37 41 41 40 37 34 35 34 34 36 38 40 42 41 40 38 33 27 26 27 23 26 33 29 24 25 24 20 21 22 19 19 21 24 26 26 21 11 7 8 5 2 2 8 11 13 11 6 5 8 14 21 21 21 22 21 19 19 21 22 21 20
48 47 46 45 43 41 38 37 35 32 29 25 19 24 33 37 37 35 33 34 32 31 33 34 34 33 35 38 38 39 35 33 35 34 35 39 41 42 44 42 41 38 35 33 28 21 17 22 28 28 29 31 27 21 20 23 19 16 22 27 27 29 26 15 13 16 10 4 6 9 11 16 14 13 20 21 21 25 23 22 25 24 25 25 22 22 23 23
49 49 48 45 44 40 38 37 36 32 27 20 24 35 45 46 46 43 38 36 36 35 33 32 31 29 28 28 29 30 27 27 31 33 35 34 32 38 42 39 38 39 40 39 35 28 22 20 22 24 25 27 27 25 25 27 24 21 24 28 26 22 22 15 6 7 6 3 8 14 15 18 16 13 20 25 27 30 30 28 28 28 27 24 22 24 25 24
49 50 49 46 44 41 40 39 36 29 21 21 32 43 49 49 50 46 39 35 33 32 32 33 32 29 29 30 30 29 27 27 29 30 33 30 28 34 37 34 35 37 36 35 34 30 24 20 24 28 26 24 24 25 26 28 29 29 27 25 24 16 14 16 9 3 5 4 4 12 18 20 21 19 19 22 24 25 28 30 30 29 26 23 23 25 24 23
49 51 50 47 45 43 42 41 35 24 20 28 39 44 49 53 51 45 38 35 32 30 32 34 32 32 33 33 31 28 27 29 30 29 29 27 26 30 32 30 31 31 29 30 33 31 24 16 16 23 27 26 25 26 30 30 31 34 31 26 28 22 12 15 17 12 8 5 5 8 10 12 21 25 26 26 25 24 26 28 28 27 26 25 23 22 22 22
50 52 53 49 45 44 42 37 30 24 28 37 44 47 50 51 48 44 37 33 32 32 32 33 31 32 33 32 31 30 28 29 31 31 29 27 25 25 24 22 22 24 23 24 28 30 29 22 17 18 21 24 27 31 36 37 34 36 37 31 29 28 19 13 17 19 12 5 4 5 5 8 12 14 17 20 22 24 25 24 24 25 25 25 22 20 21 21
51 53 54 50 47 45 40 34 33 33 36 42 46 49 50 48 48 46 39 34 33 34 34 35 35 35 33 31 30 28 27 29 31 33 34 33 31 26 22 19 18 19 20 21 23 25 26 26 24 22 22 27 33 35 34 35 34 35 39 39 35 33 28 13 9 20 21 12 9 7 6 9 9 8 11 13 16 22 24 22 23 24 22 19 19 19 21 22
51 54 55 50 46 43 37 39 41 37 39 44 46 47 47 45 45 45 41 38 37 38 38 38 40 41 39 38 37 32 31 32 32 32 33 34 33 29 25 23 20 18 18 20 23 23 24 26 27 27 28 31 33 31 28 28 30 31 32 36 38 37 36 22 12 18 23 20 19 14 7 8 11 10 9 10 13 19 21 21 20 18 14 14 16 20 22 23
50 56 57 50 45 40 36 43 47 42 44 48 47 47 46 45 47 46 44 43 41 40 40 39 40 41 40 41 41 38 37 37 35 35 35 34 34 34 32 30 29 28 26 25 25 25 26 28 28 27 28 29 29 29 30 26 26 31 32 33 36 40 42 36 26 21 15 13 16 11 7 12 18 17 14 12 14 17 18 18 15 11 10 11 14 18 20 21
49 57 59 51 44 39 37 44 47 46 47 46 46 46 46 46 47 46 44 44 41 40 41 42 43 41 40 41 39 38 38 37 38 41 40 38 38 37 34 32 32 33 31 29 26 23 24 27 27 20 15 17 20 21 24 27 29 33 35 35 35 37 39 36 31 23 13 13 18 9 4 12 18 22 25 20 16 17 18 18 15 12 13 13 15 18 21 23
43 52 57 49 41 39 43 46 45 47 48 46 47 48 46 48 47 43 44 44 42 41 42 44 43 40 41 43 41 40 39 37 38 39 37 38 39 37 35 34 33 33 33 31 28 25 25 26 25 18 10 10 13 13 18 28 33 33 34 35 34 33 32 29 27 21 12 18 27 18 10 12 11 12 19 19 18 19 19 19 18 16 17 19 21 23 26 28
38 45 50 47 42 43 46 44 40 44 47 45 48 46 43 46 46 41 42 43 41 42 42 43 43 40 40 41 40 40 39 38 38 38 38 39 38 36 36 35 33 34 36 35 34 34 34 32 30 26 20 18 17 16 17 20 24 26 30 34 36 36 34 30 26 23 18 19 27 29 25 25 23 17 13 10 13 16 16 15 16 17 19 20 20 21 25 28
37 42 45 44 41 39 40 38 35 40 43 42 45 44 41 43 44 41 39 40 41 42 40 41 43 39 36 37 38 38 38 38 37 36 37 37 35 33 32 30 26 27 31 33 34 35 33 33 36 37 34 31 27 23 20 17 17 19 21 25 30 34 37 36 32 32 29 20 19 25 27 28 34 32 23 17 18 19 18 18 20 22 21 20 19 21 24 25
38 44 44 41 42 42 44 45 44 46 48 47 49 49 48 50 49 45 44 44 44 43 40 41 43 39 37 38 39 39 39 38 36 34 33 33 33 29 28 31 31 29 29 29 28 25 22 23 28 34 37 37 35 32 30 28 24 22 19 20 23 25 30 34 34 36 36 28 23 26 29 29 31 31 30 31 31 29 28 28 29 29 27 26 27 27 27 27
40 44 44 42 45 49 50 50 49 51 52 51 53 53 52 53 52 49 49 46 46 46 43 44 46 43 40 41 41 39 38 36 35 36 36 37 35 30 30 36 39 37 35 32 30 28 26 24 23 22 25 30 33 34 33 33 32 31 29 28 27 25 25 26 28 30 31 31 31 32 34 36 34 31 34 36 32 30 29 27 26 26 25 26 26 25 26 29
40 42 44 42 45 49 52 51 50 52 52 49 52 52 49 48 48 46 43 40 40 42 39 39 42 40 36 37 38 39 41 39 38 39 39 39 38 36 34 33 35 36 36 32 31 30 27 25 23 20 20 23 26 27 28 28 29 29 31 31 31 30 30 28 27 27 28 30 32 33 35 38 37 36 39 39 37 37 36 34 33 32 32 31 30 29 30 32
41 42 44 46 47 49 51 51 48 49 51 48 48 49 46 45 45 43 42 40 38 38 36 35 37 36 32 31 32 33 36 37 38 39 39 38 39 37 33 30 30 33 33 31 31 30 28 25 23 19 18 20 21 22 23 23 23 24 28 30 31 30 31 30 30 31 31 31 31 31 32 33 33 33 35 37 36 37 37 36 37 38 38 36 35 35 34 33
42 43 44 46 51 51 52 53 49 49 52 49 47 47 45 45 46 45 46 45 42 42 42 40 41 42 40 39 35 32 32 33 32 32 32 32 33 33 31 29 28 28 29 28 25 25 24 24 24 21 18 18 20 21 20 19 16 17 21 25 28 29 29 31 34 35 35 32 31 32 34 34 33 31 32 32 32 33 33 32 32 33 33 32 31 32 32 32
Wind_Direction
9 7 3 360 357 354 352 350 349 348 347 344 341 337 335 334 333 332 331 329 327 326 325 325 323 323 323 323 323 322 324 324 325 328 327 327 326 319 304 281 261 252 250 249 247 246 245 243 242 242 241 238 235 232 235 239 241 239 233 232 235 236 235 233 230 229 231 231 235 243 242 241 242 253 260 254 247 241 242 241 240 238 232 234 227 217 220 218
12 9 6 3 359 356 353 351 349 347 345 343 340 336 333 331 331 330 328 327 325 323 321 320 319 318 319 318 318 317 317 318 324 326 322 324 323 318 309 292 274 258 250 248 246 246 245 244 243 242 242 240 238 234 231 233 237 240 239 237 237 237 237 236 234 231 229 228 235 251 251 246 240 237 253 256 249 243 243 244 242 239 237 239 233 225 225 222
10 9 8 5 2 359 355 352 350 348 346 343 339 336 332 329 328 327 325 324 322 321 320 317 316 315 315 315 315 315 313 315 323 321 315 318 317 314 310 299 288 274 259 251 246 244 244 244 243 242 243 242 239 237 233 231 232 237 240 243 244 244 243 241 239 235 231 230 236 250 253 250 242 228 221 230 233 234 239 249 253 246 241 242 238 231 230 228
7 7 6 5 4 1 358 355 351 349 348 346 343 338 334 329 326 325 322 321 320 320 319 316 315 313 312 312 313 314 312 315 320 314 312 314 313 312 308 301 294 282 269 259 250 245 243 242 242 242 242 243 242 239 236 233 232 234 237 244 252 253 250 248 246 242 237 232 231 241 248 247 243 234 225 222 226 227 223 231 256 252 245 243 240 235 233 231
3 3 2 2 2 1 359 357 353 350 348 347 345 342 339 333 328 324 321 319 318 318 317 316 314 312 311 310 310 311 312 316 318 312 313 313 311 310 306 303 297 287 275 264 256 248 243 241 241 241 241 242 243 243 240 237 235 236 239 244 251 252 252 254 253 250 244 236 230 234 244 246 245 243 238 234 232 229 222 216 236 248 248 246 240 235 233 232
358 358 358 358 358 358 358 357 355 351 348 347 346 344 343 339 334 328 324 320 318 317 316 314 313 312 311 309 308 308 311 316 314 310 311 310 310 308 303 301 298 293 282 269 261 252 245 242 240 239 240 240 242 245 245 244 240 240 242 243 245 246 250 254 253 253 250 242 235 233 239 246 248 248 247 246 243 241 237 232 234 236 240 243 239 234 232 231
355 355 354 354 354 355 355 355 354 351 348 346 346 344 343 342 338 333 328 324 320 318 316 314 312 311 310 308 307 305 307 309 307 306 307 307 307 306 302 300 298 295 288 276 264 255 247 242 239 238 239 239 239 243 246 247 246 244 244 244 245 246 249 249 245 246 248 246 242 237 237 242 247 251 253 255 255 255 249 243 240 234 228 230 232 234 231 228
352 352 351 351 351 351 351 351 351 349 347 345 345 344 343 342 340 336 332 328 324 320 318 314 312 311 309 308 306 304 306 305 303 303 304 305 305 304 301 299 298 296 291 282 269 259 252 245 240 237 237 237 237 239 241 244 248 248 246 245 245 245 245 241 236 236 238 239 241 242 243 243 247 252 255 256 258 258 253 248 243 238 232 226 225 231 232 229
350 349 349 348 348 348 348 347 347 346 344 343 342 342 341 341 339 336 334 331 327 323 320 316 313 311 309 308 306 305 308 306 303 303 302 303 304 302 300 298 296 295 293 286 275 262 251 243 237 235 235 234 233 233 234 236 240 247 249 248 246 242 240 234 232 235 235 233 235 240 246 249 251 255 258 257 256 255 253 251 244 238 236 232 227 230 233 233
347 346 346 346 345 345 345 344 344 342 341 340 339 338 338 338 337 335 333 331 328 324 322 318 314 311 309 308 306 307 309 305 303 303 301 300 301 300 298 297 294 294 293 288 279 265 252 246 240 237 236 234 233 232 230 231 234 241 246 247 246 242 239 234 232 236 239 237 237 240 244 248 250 252 256 258 257 257 254 252 248 241 239 238 236 236 237 239
344 344 343 343 342 342 342 342 341 341 339 337 336 335 333 333 333 332 331 329 327 324 322 319 314 311 309 306 306 308 306 303 302 300 299 298 297 297 297 296 294 293 291 287 281 271 261 252 246 241 237 234 235 234 232 234 237 239 243 247 249 247 246 243 239 239 241 242 242 245 249 249 248 248 251 255 257 258 256 254 253 248 242 241 241 242 241 242
341 342 342 341 340 339 339 339 340 339 338 336 334 332 330 329 329 328 328 327 325 322 320 317 313 311 308 306 306 306 303 301 300 297 297 297 295 294 295 296 295 292 289 286 282 277 266 252 243 237 235 234 234 236 236 238 241 242 245 248 250 251 252 250 248 244 242 244 246 249 254 252 247 248 250 253 256 258 258 255 253 252 248 245 244 245 245 245
338 339 339 339 337 337 337 337 338 338 336 334 332 330 328 326 325 325 324 322 321 319 318 315 313 310 305 304 305 302 300 299 297 297 296 295 295 293 293 294 293 291 288 285 281 275 265 252 243 236 235 234 229 231 236 239 244 245 248 251 252 254 254 252 252 251 247 246 247 248 255 253 248 250 254 253 254 256 257 255 252 251 250 248 247 245 245 246
336 336 337 337 335 335 335 335 336 335 334 331 328 328 326 324 323 322 321 320 319 317 315 313 310 307 303 302 303 300 298 298 296 297 295 292 293 292 292 291 289 288 286 284 280 272 264 254 243 238 237 235 232 234 236 239 245 246 249 253 252 253 255 256 257 257 253 251 249 246 252 254 251 252 256 256 256 257 258 257 255 254 251 249 248 247 245 243
335 334 335 335 334 333 333 333 334 333 332 329 326 326 325 323 322 322 321 319 317 315 312 311 309 305 302 301 300 298 296 295 295 294 292 289 289 290 291 288 285 285 283 281 278 270 262 252 243 239 238 238 237 239 240 242 247 248 249 251 250 253 258 259 258 257 255 253 248 243 248 255 256 254 255 256 257 257 259 258 256 256 254 250 247 246 246 245
333 333 333 333 333 331 331 331 332 332 331 329 326 324 324 323 322 321 319 317 316 315 312 310 308 305 302 301 300 298 295 294 293 291 289 287 286 288 289 287 283 280 279 277 273 266 259 252 245 239 238 239 237 240 244 248 250 249 247 247 248 254 262 262 255 254 254 251 244 240 246 252 258 258 255 255 256 257 258 258 255 254 254 254 250 245 244 245
332 332 331 332 332 330 329 330 331 332 331 329 326 323 322 321 320 319 319 318 316 314 311 309 308 305 302 302 300 297 294 291 290 288 286 285 286 287 286 284 279 275 274 271 267 263 255 248 243 240 241 243 241 234 233 240 242 240 240 245 248 248 252 252 247 246 240 238 241 242 247 248 246 252 254 253 254 255 255 253 250 250 252 254 254 252 247 243
330 330 331 331 331 329 328 329 330 331 330 329 326 324 322 320 320 321 320 319 316 314 312 311 310 307 304 303 300 297 294 291 289 285 283 283 283 283 281 277 272 269 267 263 260 257 251 247 239 236 235 235 233 219 218 226 225 228 234 237 246 249 244 241 243 246 232 231 236 240 246 247 243 245 250 252 250 249 250 248 245 244 246 248 251 253 253 248
329 329 330 330 330 328 327 328 329 329 329 328 326 323 321 318 316 317 317 317 316 316 314 311 309 305 302 301 298 295 293 290 285 282 281 280 280 279 276 269 264 262 260 255 252 247 245 241 229 229 234 236 236 227 229 228 215 243 254 233 234 240 232 232 240 237 216 220 230 234 243 249 246 242 244 248 249 247 246 247 244 240 239 240 243 248 252 253
328 329 329 330 330 328 327 328 328 329 329 328 327 324 322 321 319 318 319 320 318 314 311 310 308 304 301 298 295 292 289 284 280 278 277 276 276 274 269 262 256 253 255 254 250 247 239 229 229 236 236 244 259 254 251 243 232 255 264 245 238 234 214 202 216 225 209 217 231 233 238 244 245 243 241 242 246 247 247 246 245 242 241 242 244 247 250 254
328 328 329 329 329 328 326 327 328 329 329 330 330 329 329 330 329 327 324 325 326 318 315 313 308 304 302 299 296 292 288 283 279 276 274 272 270 266 262 257 251 247 250 244 233 242 237 229 241 251 221 224 247 244 242 244 241 249 254 250 247 243 231 210 213 238 239 238 242 239 240 243 244 246 246 244 245 246 246 247 248 249 250 252 253 254 255 255
327 327 328 328 328 327 325 325 328 328 327 330 331 329 329 329 328 326 323 321 324 322 318 316 309 305 302 297 295 294 291 288 283 278 273 268 263 260 257 251 245 242 244 237 224 230 242 244 248 242 226 227 229 225 224 233 238 242 249 252 252 249 246 240 239 247 249 249 250 249 250 252 252 254 254 252 251 252 251 251 254 257 257 258 257 256 256 255
326 326 327 326 326 326 324 323 326 326 325 328 329 328 327 325 324 323 320 318 319 322 321 317 312 308 303 297 296 295 295 294 290 284 275 265 259 251 247 246 242 231 227 236 234 231 243 256 238 225 230 232 235 240 241 244 245 246 246 247 252 254 250 252 249 242 241 245 251 255 260 263 263 262 260 258 258 257 257 257 257 258 258 258 257 256 256 255
325 325 325 325 325 324 323 322 324 324 324 326 327 327 325 324 324 322 321 318 317 322 323 318 316 311 305 300 298 297 296 296 293 292 283 263 252 240 239 245 242 226 223 234 241 238 235 230 229 234 236 238 247 257 254 251 253 255 252 247 251 249 239 243 235 226 235 243 254 262 270 276 274 268 264 258 256 255 254 254 254 255 255 256 258 257 257 256
324 324 324 323 323 322 322 321 322 323 323 324 325 325 324 324 324 323 323 320 317 322 323 318 317 310 304 300 298 297 295 294 293 294 283 258 247 239 238 239 237 234 234 238 243 245 239 229 237 245 247 250 256 261 255 248 251 256 261 262 261 247 232 236 235 239 252 263 270 259 256 280 277 256 247 230 231 240 242 245 251 258 258 254 255 256 254 252
323 323 323 322 321 321 321 320 320 320 320 322 323 323 323 324 324 325 325 322 317 319 320 314 313 307 302 301 298 297 294 293 293 289 278 259 246 238 236 236 239 241 242 242 243 246 246 240 244 251 255 256 256 255 249 240 242 246 253 260 256 240 230 234 240 246 253 263 275 222 217 265 264 219 200 206 229 242 247 256 258 259 259 252 246 245 245 244
322 322 321 321 320 319 320 320 319 319 319 321 322 322 322 323 325 327 329 325 312 314 314 307 305 300 297 296 294 292 288 288 290 286 279 266 247 238 239 241 244 246 244 243 241 248 253 250 251 252 250 251 251 255 255 241 239 242 246 244 228 223 230 239 247 248 246 249 251 236 238 262 267 261 257 253 258 261 260 261 256 255 258 250 244 244 244 246
320 321 320 319 319 318 319 320 318 317 318 320 320 320 320 321 323 326 330 325 297 306 307 301 298 297 294 291 288 286 283 283 284 282 277 268 252 245 245 246 247 248 246 240 238 249 258 255 252 247 242 247 254 262 264 247 241 238 243 245 235 231 237 244 243 237 247 260 258 248 243 250 269 271 272 259 255 258 261 261 257 253 249 245 248 248 245 247
319 319 318 317 317 317 319 318 315 315 317 318 318 318 319 320 321 323 325 256 293 298 297 296 294 294 293 288 286 284 282 281 278 275 274 268 259 254 252 250 246 245 247 245 245 250 253 253 255 252 253 256 260 265 260 243 238 237 241 246 245 245 245 245 239 236 248 253 253 249 234 226 269 262 240 240 253 260 262 258 246 230 227 236 242 242 244 249
317 317 317 316 316 316 318 317 314 314 316 316 316 316 316 317 318 322 240 261 289 289 289 291 289 291 291 284 282 282 282 281 276 275 273 267 264 262 259 256 250 248 251 253 254 256 255 256 257 258 261 262 261 262 254 240 229 231 240 244 249 256 255 254 246 240 249 239 253 255 235 218 262 265 234 240 250 253 234 219 212 211 220 231 238 245 256 257
316 316 316 316 316 317 318 317 313 313 315 314 313 313 314 314 312 286 217 286 293 288 285 285 285 290 289 283 281 281 281 279 275 274 272 271 270 266 261 258 254 253 253 254 259 264 263 261 260 262 265 263 260 257 251 242 230 227 237 241 248 256 251 255 239 226 230 242 258 262 241 222 227 233 226 229 241 236 220 213 212 218 228 239 250 255 256 255
315 315 315 316 317 318 318 315 312 313 313 310 310 310 312 314 291 238 259 288 295 282 279 281 285 288 288 286 283 280 279 276 275 274 272 271 271 268 265 263 260 255 255 258 263 268 266 262 263 264 261 254 250 247 242 240 233 229 231 226 221 232 222 223 220 216 217 239 257 263 233 221 228 242 248 231 224 219 202 199 209 227 247 251 249 248 249 260
315 315 316 316 317 318 317 314 312 311 310 308 307 307 309 305 263 260 270 277 275 277 281 283 286 286 285 282 281 280 277 275 275 274 272 269 268 269 268 267 264 257 255 260 259 262 266 266 256 246 246 245 240 236 234 235 233 229 227 215 193 177 221 216 215 225 224 241 255 250 229 222 234 256 261 242 222 203 190 199 216 237 250 237 236 260 265 263
315 315 315 316 317 317 316 313 312 310 307 303 303 303 290 249 264 278 279 275 275 279 281 280 282 282 281 279 279 278 275 275 275 272 270 266 263 265 265 265 264 259 256 256 253 252 254 257 249 241 246 250 247 247 246 244 242 240 237 226 211 205 211 213 211 215 214 245 253 232 220 220 216 251 268 218 206 208 209 221 234 244 243 231 254 269 263 253
315 315 315 316 316 316 315 313 311 308 303 300 297 284 259 254 270 281 285 285 284 282 281 281 280 277 277 279 277 275 273 271 272 268 264 262 260 263 265 265 265 259 250 244 248 250 243 248 255 253 252 252 250 251 238 226 233 243 234 222 219 223 228 241 260 250 251 299 235 200 210 225 218 234 248 197 206 221 225 233 239 243 244 249 261 258 248 246
314 314 315 316 316 317 315 312 310 305 299 293 276 262 265 274 282 283 283 287 285 282 283 284 281 274 274 276 275 275 272 265 265 262 259 262 262 263 265 264 262 257 248 240 240 243 238 249 258 253 251 250 246 241 222 210 220 224 211 213 226 230 229 241 264 258 262 286 240 218 221 230 231 248 254 256 261 255 248 243 239 243 252 254 253 247 244 247
315 314 315 317 317 317 314 311 308 302 294 273 253 267 280 285 289 287 283 281 278 278 278 277 276 271 268 270 272 275 271 261 258 254 252 257 261 263 265 263 259 256 255 251 245 245 247 253 255 247 248 248 240 238 230 222 223 213 206 218 228 227 223 225 250 261 249 256 244 234 236 237 232 244 255 252 253 254 250 243 237 242 251 250 244 243 247 249
315 314 315 317 317 316 314 310 305 298 283 254 254 274 284 285 288 289 284 280 276 275 273 267 266 266 265 266 268 270 265 256 253 250 249 251 255 262 264 263 260 258 258 254 246 244 245 250 254 248 247 247 238 234 231 226 226 221 216 215 212 212 219 213 205 225 228 233 251 233 237 242 237 242 249 238 237 243 240 235 236 239 242 242 242 245 248 250
314 312 313 315 316 315 310 306 303 291 263 248 255 270 280 284 287 286 281 278 275 272 270 266 265 265 265 264 265 265 260 255 255 251 249 248 250 261 265 262 262 260 255 246 241 240 235 236 253 246 240 240 230 221 225 227 223 221 220 211 207 211 211 206 210 214 216 228 248 232 231 242 242 243 247 244 244 242 233 232 235 235 233 234 237 242 249 252
312 310 311 314 314 310 306 302 294 274 255 256 263 269 275 279 281 280 277 277 275 271 268 268 268 265 265 265 264 264 262 261 258 251 250 251 250 258 265 261 256 254 248 239 236 238 234 229 243 242 225 220 221 224 232 234 223 215 217 213 208 211 214 224 224 216 212 218 235 239 240 240 238 235 237 244 244 237 232 230 228 226 228 231 234 239 245 249
309 307 309 313 310 306 303 295 281 268 260 263 266 269 272 273 275 276 274 272 272 269 265 266 266 264 265 266 264 263 263 263 260 254 251 253 252 255 261 263 256 249 244 237 232 233 232 230 235 233 212 212 228 237 242 240 229 222 223 220 215 212 213 227 242 224 223 222 216 228 250 247 242 235 235 238 233 226 222 220 220 226 232 235 235 236 239 244
307 306 308 310 305 304 300 289 280 271 263 264 266 268 270 272 274 275 275 274 273 271 269 267 266 264 262 263 264 263 263 263 261 257 254 252 251 251 255 262 262 253 245 244 243 243 245 243 240 236 228 229 240 241 238 237 230 227 229 227 225 220 214 215 223 226 228 227 230 240 254 238 226 223 230 226 215 210 210 217 226 232 238 240 237 237 238 239
305 306 308 306 302 302 293 282 280 273 267 271 273 271 271 273 274 275 277 279 276 273 272 270 268 266 264 265 265 261 262 260 258 259 258 256 256 257 258 262 264 262 257 255 255 252 249 244 240 243 244 242 245 242 239 238 229 225 227 226 225 223 222 223 225 231 234 221 223 236 242 233 230 233 244 245 230 221 220 227 233 236 242 237 234 236 236 236
304 305 307 305 301 298 286 279 281 279 275 277 277 275 276 277 277 277 280 282 278 274 273 273 271 269 270 272 267 263 265 262 260 262 260 258 262 263 262 260 257 256 255 253 251 246 242 237 231 236 247 239 235 236 235 232 228 226 225 223 223 224 226 228 230 237 245 230 227 233 229 229 232 239 243 244 239 234 233 235 239 248 255 251 251 255 254 253
300 302 304 303 298 293 287 285 286 283 281 280 279 278 279 279 279 280 281 281 280 278 276 276 275 274 277 276 271 270 270 262 260 264 263 263 267 268 267 264 255 249 249 252 251 242 239 240 231 222 223 223 224 227 226 227 229 230 229 226 225 225 225 227 230 232 234 233 233 235 232 226 223 229 236 235 233 235 239 246 255 267 275 278 282 283 280 276
294 294 297 297 294 291 289 289 287 284 284 283 282 281 280 280 283 285 283 280 281 280 277 277 277 277 276 274 272 273 271 265 265 269 269 269 269 269 270 266 257 249 245 248 250 244 241 243 241 238 237 234 236 237 232 232 232 232 236 234 230 230 231 231 233 231 229 233 234 234 236 238 235 230 226 226 232 240 249 260 273 287 295 297 297 296 292 289
288 285 288 292 292 288 285 285 283 282 284 284 282 282 282 282 285 286 282 280 283 283 279 279 279 275 271 271 273 274 274 273 273 269 267 268 269 270 269 263 261 260 252 246 244 243 243 241 239 242 245 245 246 243 238 245 244 233 236 239 233 232 234 234 236 236 235 236 238 236 236 239 240 238 236 237 240 245 254 262 268 274 280 283 280 280 284 287
285 283 285 287 286 283 281 281 281 280 282 282 281 282 283 285 286 285 284 284 285 284 282 282 281 277 275 277 278 277 275 274 273 271 272 276 279 282 280 277 281 285 279 268 257 255 261 256 244 243 246 247 248 248 244 248 254 252 251 250 242 236 235 235 239 241 239 241 246 245 241 241 243 243 245 248 251 255 261 265 267 268 267 268 269 271 274 277
284 285 285 283 282 282 281 281 282 283 283 283 283 284 284 285 286 286 287 287 285 284 283 281 280 279 279 281 279 275 273 273 274 276 279 281 282 283 285 287 288 289 290 287 281 279 280 277 271 265 260 253 250 250 249 247 251 256 258 258 255 251 247 245 247 248 246 247 250 250 250 250 249 249 251 253 253 256 257 258 264 267 267 270 274 277 278 278
284 285 288 287 283 280 280 282 284 285 284 283 284 285 284 285 286 287 287 285 284 285 282 278 280 281 281 280 278 274 275 275 274 275 277 278 280 280 281 284 287 289 289 287 285 285 279 275 279 279 273 267 260 258 258 255 255 257 256 256 257 258 258 257 256 257 258 258 256 254 255 257 255 253 256 258 256 257 257 257 260 262 265 269 271 271 275 279
284 283 284 288 286 283 283 284 284 285 285 284 284 285 285 284 285 287 287 283 280 282 282 279 281 283 282 279 278 280 283 281 276 275 275 273 275 277 276 277 281 283 281 280 280 279 274 273 277 272 261 262 264 263 263 262 262 261 258 258 258 259 261 261 258 257 257 259 261 259 258 260 259 257 259 261 262 263 265 265 266 265 266 269 270 270 272 275
288 286 283 285 287 285 284 285 285 285 285 284 283 285 286 285 286 287 287 285 281 281 283 283 284 285 283 278 276 281 285 283 278 274 273 271 271 272 272 273 275 274 272 272 273 271 267 266 266 260 253 252 252 251 255 259 259 257 257 259 261 261 262 262 259 257 256 257 259 260 259 260 261 259 260 262 265 267 269 269 270 271 271 272 271 271 272 274
Height
3113 3111 3109 3108 3107 3105 3104 3103 3101 3100 3099 3098 3096 3095 3093 3092 3091 3090 3089 3088 3088 3087 3086 3085 3083 3082 3081 3080 3079 3078 3078 3077 3077 3076 3076 3075 3075 3074 3074 3074 3074 3074 3075 3076 3077 3079 3080 3080 3081 3082 3083 3085 3086 3087 3089 3089 3091 3092 3092 3091 3087 3087 3089 3092 3096 3099 3102 3106 3107 3106 3106 3107 3109 3111 3112 3114 3116 3116 3116 3118 3119 3121 3123 3122 3123 3126 3126 3127
3113 3111 3110 3108 3107 3105 3104 3102 3101 3100 3098 3097 3096 3095 3093 3092 3090 3089 3088 3087 3086 3086 3085 3084 3083 3081 3080 3079 3078 3077 3076 3076 3076 3076 3075 3074 3074 3074 3073 3073 3072 3072 3072 3073 3074 3076 3077 3078 3079 3079 3080 3081 3082 3084 3085 3086 3087 3087 3088 3086 3082 3084 3087 3091 3094 3098 3101 3104 3104 3104 3104 3103 3106 3109 3110 3111 3112 3114 3115 3116 3117 3119 3120 3119 3121 3124 3124 3125
3114 3112 3110 3108 3107 3105 3103 3102 3100 3099 3098 3097 3096 3094 3093 3091 3090 3088 3087 3086 3085 3084 3084 3082 3081 3080 3079 3078 3077 3076 3075 3075 3075 3074 3074 3073 3073 3072 3072 3071 3071 3071 3071 3070 3072 3073 3074 3075 3076 3077 3077 3078 3078 3080 3082 3083 3084 3084 3084 3080 3079 3084 3087 3088 3091 3094 3098 3100 3101 3100 3100 3100 3102 3106 3107 3108 3109 3111 3113 3114 3115 3116 3117 3117 3119 3122 3122 3123
3114 3112 3110 3109 3107 3105 3104 3102 3100 3099 3097 3096 3095 3094 3092 3091 3089 3088 3086 3085 3084 3083 3082 3081 3080 3079 3078 3077 3076 3075 3074 3074 3074 3073 3072 3072 3071 3071 3070 3070 3070 3069 3069 3069 3069 3070 3071 3072 3073 3074 3074 3075 3075 3076 3078 3079 3081 3081 3079 3076 3078 3084 3084 3086 3089 3091 3094 3097 3097 3096 3095 3095 3097 3100 3102 3104 3106 3108 3111 3113 3113 3113 3114 3114 3116 3119 3119 3120
3114 3112 3110 3108 3107 3105 3103 3102 3100 3099 3097 3096 3094 3093 3092 3090 3089 3087 3085 3084 3083 3082 3081 3080 3079 3078 3077 3076 3075 3074 3073 3072 3072 3071 3071 3071 3070 3070 3069 3068 3068 3067 3067 3067 3067 3067 3068 3069 3070 3071 3071 3073 3073 3073 3073 3076 3079 3078 3075 3076 3078 3081 3081 3083 3087 3087 3089 3092 3093 3093 3091 3091 3093 3094 3097 3100 3101 3104 3109 3111 3110 3111 3111 3112 3114 3115 3116 3118
3113 3111 3110 3108 3106 3105 3103 3101 3100 3098 3096 3095 3094 3093 3091 3090 3088 3087 3085 3083 3081 3080 3079 3078 3077 3076 3075 3074 3073 3073 3072 3071 3071 3070 3069 3069 3068 3068 3067 3067 3066 3066 3065 3065 3065 3065 3065 3066 3067 3068 3068 3070 3071 3070 3071 3074 3076 3074 3073 3075 3077 3078 3079 3082 3085 3083 3083 3086 3087 3089 3088 3088 3089 3089 3092 3094 3095 3100 3106 3109 3108 3109 3110 3110 3111 3111 3113 3116
3113 3111 3109 3107 3106 3104 3102 3100 3099 3097 3095 3094 3093 3092 3090 3089 3088 3086 3084 3082 3081 3079 3078 3076 3075 3074 3073 3072 3071 3071 3071 3070 3070 3069 3068 3068 3067 3067 3066 3065 3064 3064 3063 3063 3063 3062 3063 3063 3063 3065 3066 3067 3068 3068 3070 3071 3071 3070 3070 3072 3074 3076 3077 3080 3081 3079 3080 3082 3083 3084 3084 3085 3086 3085 3088 3089 3091 3096 3102 3105 3105 3106 3108 3107 3108 3109 3110 3113
3113 3111 3109 3107 3105 3103 3101 3099 3098 3096 3094 3092 3091 3090 3089 3088 3087 3085 3084 3082 3080 3078 3077 3075 3073 3072 3071 3070 3069 3069 3069 3068 3068 3067 3066 3066 3065 3065 3064 3063 3063 3062 3061 3061 3061 3060 3060 3060 3061 3062 3063 3064 3066 3066 3068 3069 3068 3066 3067 3069 3071 3074 3075 3076 3076 3076 3078 3079 3080 3081 3080 3082 3083 3083 3084 3085 3088 3092 3096 3099 3100 3101 3104 3104 3105 3106 3108 3110
3113 3111 3109 3107 3104 3102 3100 3099 3097 3095 3093 3091 3090 3089 3088 3087 3085 3084 3082 3081 3079 3077 3076 3074 3072 3071 3069 3068 3067 3066 3067 3066 3065 3065 3064 3064 3063 3062 3062 3062 3061 3060 3059 3059 3058 3058 3058 3058 3058 3059 3059 3060 3062 3063 3065 3066 3065 3063 3064 3066 3068 3070 3071 3072 3072 3073 3075 3076 3077 3077 3078 3079 3081 3081 3078 3079 3084 3088 3092 3094 3094 3096 3099 3101 3102 3104 3105 3106
3113 3111 3109 3107 3105 3103 3101 3099 3097 3095 3092 3090 3089 3087 3086 3085 3084 3082 3081 3079 3078 3076 3074 3073 3071 3069 3068 3067 3065 3064 3065 3064 3063 3063 3062 3062 3061 3060 3060 3059 3059 3058 3057 3057 3056 3056 3056 3055 3055 3055 3056 3057 3059 3060 3061 3062 3061 3061 3062 3062 3064 3065 3065 3067 3068 3070 3072 3074 3075 3075 3075 3076 3079 3077 3072 3075 3081 3084 3088 3089 3091 3093 3095 3097 3099 3100 3102 3103
3114 3111 3109 3106 3104 3102 3100 3099 3097 3095 3092 3090 3088 3086 3085 3084 3082 3081 3080 3078 3077 3075 3073 3071 3070 3068 3067 3065 3064 3063 3062 3062 3061 3061 3060 3060 3059 3058 3058 3057 3056 3056 3055 3055 3054 3053 3053 3053 3053 3053 3054 3056 3056 3057 3059 3058 3058 3058 3059 3060 3061 3061 3061 3062 3064 3067 3070 3071 3072 3073 3072 3072 3074 3070 3067 3073 3077 3079 3084 3086 3088 3089 3091 3093 3094 3096 3097 3099
3114 3111 3109 3107 3104 3102 3100 3098 3096 3094 3092 3090 3087 3086 3084 3082 3081 3080 3078 3077 3075 3074 3072 3070 3068 3067 3065 3064 3063 3061 3060 3060 3059 3058 3058 3057 3057 3056 3056 3055 3054 3054 3053 3053 3052 3051 3051 3051 3051 3051 3052 3053 3053 3055 3056 3055 3055 3056 3058 3057 3058 3058 3057 3058 3061 3064 3067 3067 3069 3072 3068 3065 3066 3064 3066 3073 3074 3075 3079 3082 3085 3086 3087 3089 3089 3091 3093 3094
3113 3111 3109 3106 3104 3102 3099 3097 3095 3093 3091 3089 3087 3085 3083 3081 3080 3078 3077 3075 3074 3072 3070 3068 3066 3065 3063 3062 3062 3060 3058 3058 3057 3056 3056 3055 3054 3054 3053 3053 3052 3051 3051 3051 3050 3050 3049 3049 3049 3049 3049 3050 3051 3052 3051 3051 3053 3054 3055 3055 3055 3055 3051 3053 3057 3059 3062 3063 3066 3071 3063 3055 3061 3063 3065 3069 3070 3072 3073 3076 3080 3082 3084 3085 3085 3086 3087 3089
3111 3109 3107 3105 3103 3101 3099 3097 3095 3092 3090 3088 3086 3084 3082 3080 3078 3076 3075 3073 3072 3070 3068 3066 3065 3063 3061 3060 3059 3058 3056 3055 3055 3054 3053 3052 3052 3051 3051 3051 3050 3049 3049 3048 3048 3048 3047 3047 3047 3046 3047 3048 3049 3049 3049 3050 3051 3052 3053 3052 3052 3051 3047 3051 3055 3054 3058 3060 3063 3068 3057 3048 3058 3062 3062 3064 3066 3067 3069 3072 3075 3077 3080 3081 3082 3082 3083 3084
3109 3107 3105 3104 3102 3099 3097 3095 3093 3091 3089 3087 3084 3082 3080 3078 3076 3074 3073 3071 3069 3068 3066 3064 3063 3061 3058 3058 3057 3056 3054 3053 3052 3052 3051 3050 3050 3049 3049 3049 3048 3047 3047 3046 3046 3045 3045 3045 3045 3045 3045 3046 3047 3047 3048 3049 3049 3050 3051 3049 3048 3048 3046 3049 3051 3050 3054 3056 3059 3061 3052 3046 3055 3058 3059 3060 3061 3063 3065 3068 3071 3072 3075 3077 3078 3079 3079 3079
3107 3105 3103 3101 3100 3098 3095 3094 3092 3090 3088 3085 3082 3080 3078 3076 3074 3072 3070 3069 3067 3065 3064 3062 3060 3058 3056 3055 3054 3054 3053 3051 3051 3050 3049 3048 3047 3047 3047 3046 3046 3045 3045 3044 3044 3043 3043 3043 3043 3043 3043 3044 3045 3045 3047 3047 3047 3048 3047 3046 3047 3047 3046 3047 3048 3047 3051 3052 3053 3053 3048 3048 3052 3054 3055 3056 3057 3060 3061 3063 3066 3068 3070 3071 3073 3074 3075 3076
3105 3103 3101 3099 3097 3095 3093 3091 3090 3088 3085 3083 3081 3078 3076 3074 3072 3071 3068 3066 3064 3063 3061 3059 3058 3055 3054 3053 3052 3051 3050 3049 3049 3048 3046 3046 3045 3044 3044 3043 3043 3043 3042 3042 3042 3041 3041 3041 3041 3042 3042 3042 3043 3044 3045 3045 3044 3045 3045 3044 3045 3045 3045 3046 3045 3045 3048 3047 3048 3049 3046 3047 3050 3051 3051 3052 3054 3056 3057 3059 3062 3064 3065 3066 3068 3069 3070 3072
3102 3100 3098 3096 3094 3092 3090 3089 3087 3085 3083 3081 3078 3076 3073 3071 3069 3067 3066 3064 3062 3060 3058 3056 3055 3052 3050 3050 3049 3048 3048 3047 3046 3044 3043 3043 3042 3042 3041 3041 3041 3040 3040 3039 3039 3039 3039 3039 3039 3039 3040 3040 3040 3041 3041 3040 3041 3043 3043 3042 3042 3043 3043 3044 3043 3043 3045 3044 3044 3045 3043 3043 3047 3049 3048 3049 3051 3053 3054 3055 3057 3059 3061 3061 3062 3063 3065 3067
3099 3097 3095 3093 3091 3089 3087 3085 3083 3082 3080 3078 3076 3073 3071 3069 3066 3065 3065 3062 3059 3057 3055 3053 3053 3051 3048 3047 3046 3044 3044 3043 3042 3041 3040 3039 3039 3039 3038 3038 3038 3038 3037 3037 3037 3037 3037 3037 3036 3036 3036 3037 3037 3037 3037 3038 3040 3041 3041 3040 3040 3040 3041 3043 3042 3041 3042 3042 3042 3042 3041 3041 3044 3046 3046 3046 3047 3049 3050 3051 3052 3053 3055 3057 3058 3059 3060 3062
3097 3094 3092 3090 3088 3085 3083 3081 3079 3077 3075 3073 3071 3069 3067 3064 3061 3060 3061 3061 3059 3055 3053 3051 3049 3047 3045 3043 3042 3041 3040 3039 3038 3037 3036 3036 3035 3035 3035 3036 3035 3035 3035 3034 3035 3035 3035 3034 3033 3034 3034 3035 3036 3036 3036 3037 3038 3038 3037 3037 3038 3038 3038 3039 3040 3039 3039 3040 3039 3040 3040 3040 3041 3041 3042 3044 3044 3044 3045 3046 3047 3048 3050 3052 3054 3055 3057 3059
3094 3092 3090 3088 3085 3082 3079 3077 3076 3073 3071 3068 3066 3062 3059 3057 3053 3050 3049 3053 3056 3053 3050 3049 3046 3043 3041 3039 3037 3036 3035 3034 3034 3033 3033 3033 3032 3032 3032 3033 3033 3033 3033 3033 3033 3033 3032 3031 3032 3033 3033 3035 3035 3035 3036 3036 3036 3036 3035 3035 3035 3035 3036 3037 3038 3038 3037 3037 3037 3038 3038 3036 3037 3037 3037 3039 3039 3039 3040 3041 3042 3044 3046 3048 3050 3052 3054 3056
3091 3089 3088 3085 3083 3080 3076 3074 3073 3070 3068 3066 3064 3060 3057 3055 3052 3049 3044 3043 3048 3049 3046 3045 3042 3040 3038 3035 3033 3032 3031 3030 3030 3029 3030 3030 3029 3029 3030 3030 3030 3031 3031 3031 3031 3031 3030 3029 3031 3032 3032 3033 3033 3033 3033 3033 3033 3033 3033 3033 3032 3033 3034 3034 3035 3036 3035 3034 3034 3035 3034 3032 3032 3033 3033 3034 3034 3034 3036 3037 3038 3040 3042 3043 3045 3046 3048 3050
3089 3087 3085 3083 3081 3078 3074 3071 3070 3068 3065 3063 3062 3059 3056 3054 3051 3049 3044 3039 3040 3044 3043 3040 3038 3036 3034 3032 3031 3030 3028 3027 3026 3026 3027 3027 3027 3028 3027 3027 3028 3029 3029 3028 3029 3029 3028 3028 3029 3029 3030 3030 3031 3031 3031 3030 3030 3030 3031 3031 3030 3031 3033 3032 3033 3033 3033 3031 3031 3032 3030 3027 3028 3028 3027 3029 3030 3030 3032 3033 3034 3035 3036 3037 3038 3040 3042 3043
3086 3084 3082 3080 3078 3076 3072 3069 3067 3066 3063 3061 3059 3057 3054 3052 3049 3046 3043 3037 3034 3037 3038 3035 3034 3033 3031 3030 3029 3028 3026 3025 3024 3024 3025 3025 3025 3026 3025 3026 3027 3027 3026 3027 3027 3027 3026 3027 3026 3027 3027 3028 3028 3029 3028 3028 3028 3028 3028 3028 3028 3030 3031 3030 3031 3030 3029 3029 3028 3030 3027 3021 3021 3022 3022 3024 3026 3025 3027 3028 3029 3030 3031 3032 3033 3034 3036 3038
3083 3081 3079 3077 3075 3073 3071 3067 3064 3063 3061 3059 3057 3055 3052 3050 3047 3044 3040 3035 3030 3032 3033 3031 3031 3030 3029 3028 3027 3026 3024 3024 3023 3023 3023 3023 3023 3024 3024 3025 3024 3024 3025 3025 3025 3024 3024 3025 3025 3025 3025 3026 3026 3026 3026 3026 3026 3026 3026 3026 3026 3028 3029 3029 3029 3028 3028 3027 3026 3027 3026 3018 3015 3017 3017 3019 3020 3021 3023 3025 3026 3027 3027 3029 3029 3030 3031 3033
3080 3078 3076 3074 3072 3070 3068 3065 3062 3060 3058 3057 3055 3053 3051 3048 3046 3043 3039 3034 3028 3028 3029 3029 3028 3028 3027 3026 3025 3024 3023 3022 3022 3021 3021 3021 3022 3022 3022 3022 3022 3023 3023 3023 3023 3021 3021 3023 3022 3022 3023 3022 3023 3023 3023 3024 3024 3024 3024 3024 3024 3025 3026 3026 3026 3027 3026 3025 3024 3024 3024 3018 3013 3014 3015 3016 3018 3019 3021 3022 3023 3024 3024 3025 3026 3026 3027 3027
3077 3075 3073 3071 3069 3066 3064 3061 3059 3057 3055 3054 3052 3050 3049 3047 3045 3042 3039 3034 3027 3025 3026 3026 3025 3025 3025 3024 3023 3022 3021 3020 3020 3019 3019 3020 3020 3020 3020 3020 3021 3021 3021 3022 3021 3018 3018 3019 3019 3020 3020 3020 3020 3020 3021 3022 3022 3021 3022 3022 3023 3023 3023 3023 3024 3024 3023 3023 3023 3021 3023 3018 3010 3010 3013 3014 3015 3016 3018 3019 3021 3022 3021 3022 3022 3022 3023 3024
3074 3072 3070 3068 3066 3063 3061 3058 3055 3054 3053 3051 3049 3048 3046 3045 3044 3042 3042 3037 3027 3022 3023 3023 3023 3022 3022 3022 3021 3020 3019 3018 3018 3017 3017 3018 3018 3018 3018 3018 3018 3018 3019 3019 3016 3015 3016 3016 3016 3017 3017 3017 3017 3018 3019 3020 3019 3019 3019 3019 3020 3021 3021 3021 3021 3021 3022 3022 3019 3018 3021 3018 3007 3005 3009 3010 3011 3013 3014 3016 3018 3019 3019 3018 3017 3018 3019 3020
3071 3069 3067 3065 3063 3061 3059 3056 3052 3051 3050 3048 3047 3045 3043 3043 3042 3041 3043 3038 3025 3020 3021 3020 3020 3020 3019 3019 3018 3017 3017 3017 3016 3015 3016 3016 3015 3015 3015 3016 3016 3015 3014 3014 3013 3013 3013 3013 3013 3014 3014 3014 3015 3016 3016 3017 3017 3016 3016 3016 3017 3018 3018 3019 3019 3019 3021 3019 3014 3013 3017 3015 3006 3002 3006 3007 3007 3008 3010 3012 3013 3015 3014 3013 3014 3015 3017 3018
3067 3065 3063 3061 3059 3058 3056 3053 3049 3048 3047 3045 3044 3042 3041 3041 3039 3040 3041 3033 3021 3019 3019 3018 3017 3017 3016 3016 3015 3015 3015 3014 3013 3013 3013 3012 3012 3013 3012 3013 3013 3012 3011 3011 3009 3009 3010 3010 3010 3010 3009 3010 3012 3012 3013 3014 3014 3014 3013 3013 3014 3015 3015 3017 3016 3017 3019 3014 3008 3007 3012 3014 3007 3000 3001 3003 3003 3003 3005 3007 3009 3010 3010 3011 3012 3014 3014 3015
3064 3062 3060 3058 3056 3054 3053 3050 3046 3044 3044 3042 3040 3040 3039 3037 3037 3038 3034 3024 3018 3017 3015 3015 3015 3014 3013 3013 3012 3012 3012 3011 3011 3011 3010 3010 3009 3009 3009 3009 3009 3009 3008 3006 3004 3004 3006 3005 3005 3005 3005 3006 3008 3008 3008 3010 3010 3010 3010 3011 3012 3013 3013 3015 3014 3015 3016 3008 3001 3002 3006 3009 3005 2998 2997 2999 2999 3001 3002 3003 3004 3006 3008 3009 3010 3011 3012 3012
3060 3058 3056 3054 3052 3051 3049 3047 3043 3041 3040 3038 3038 3037 3036 3035 3034 3030 3024 3020 3017 3013 3011 3013 3012 3011 3011 3010 3008 3008 3008 3007 3007 3007 3007 3006 3005 3004 3004 3004 3005 3005 3003 3001 3000 3000 2999 2998 2999 3000 3001 3002 3003 3003 3004 3005 3006 3007 3007 3008 3011 3011 3011 3013 3011 3010 3008 3002 2997 2999 3001 3001 2997 2994 2995 2997 2998 2998 2998 2999 3000 3002 3005 3006 3007 3008 3009 3010
3056 3054 3052 3051 3049 3047 3045 3042 3040 3038 3035 3034 3034 3033 3034 3034 3027 3019 3018 3018 3015 3010 3009 3010 3008 3007 3007 3005 3003 3004 3003 3002 3002 3003 3002 3002 3000 2999 2999 2998 3000 3001 2998 2998 2998 2996 2994 2993 2994 2995 2995 2996 2998 2998 2999 2999 3000 3001 3002 3004 3006 3007 3008 3008 3005 3002 3000 2996 2994 2996 2999 2997 2992 2989 2989 2992 2996 2996 2996 2997 2998 3000 3002 3004 3005 3006 3006 3008
3051 3049 3048 3046 3045 3043 3041 3038 3036 3034 3031 3030 3030 3030 3031 3027 3018 3013 3013 3012 3010 3008 3006 3005 3004 3003 3001 2999 2998 2998 2998 2997 2997 2997 2996 2996 2995 2992 2992 2992 2993 2994 2994 2995 2994 2993 2991 2988 2987 2989 2989 2990 2991 2992 2993 2994 2994 2995 2996 2998 2998 2999 3000 3000 2997 2995 2994 2992 2990 2993 2996 2992 2987 2985 2984 2986 2991 2993 2994 2995 2996 2998 2999 3001 3002 3002 3003 3004
3046 3044 3043 3042 3041 3039 3037 3034 3032 3030 3027 3025 3026 3026 3023 3016 3009 3008 3008 3006 3005 3004 3002 3000 3000 2998 2995 2993 2992 2992 2994 2992 2991 2991 2989 2988 2987 2986 2986 2986 2986 2988 2990 2990 2987 2987 2986 2981 2981 2985 2984 2985 2986 2987 2990 2991 2991 2992 2993 2995 2994 2993 2994 2993 2991 2990 2990 2990 2989 2990 2990 2985 2983 2984 2983 2985 2988 2990 2992 2993 2994 2995 2996 2998 2999 2999 3000 3001
3041 3039 3038 3037 3036 3034 3032 3029 3027 3026 3023 3022 3022 3018 3011 3005 3004 3005 3003 3002 3001 3000 2998 2996 2994 2992 2989 2986 2985 2985 2987 2987 2986 2984 2983 2981 2980 2979 2979 2979 2980 2981 2982 2982 2981 2981 2980 2976 2977 2980 2979 2980 2982 2984 2986 2986 2987 2988 2988 2988 2988 2989 2991 2991 2989 2988 2989 2989 2987 2985 2984 2982 2984 2983 2981 2984 2985 2986 2988 2989 2990 2991 2992 2994 2995 2995 2996 2997
3035 3033 3032 3032 3031 3029 3027 3024 3022 3020 3018 3017 3014 3006 2999 2997 2998 2999 2999 2999 2997 2996 2996 2992 2988 2986 2984 2981 2980 2980 2981 2981 2980 2978 2977 2976 2973 2971 2972 2973 2974 2974 2973 2975 2976 2976 2976 2973 2972 2974 2974 2975 2978 2979 2981 2982 2983 2984 2982 2983 2986 2988 2989 2989 2989 2987 2988 2987 2983 2980 2980 2980 2981 2979 2978 2980 2981 2982 2983 2983 2985 2987 2988 2990 2991 2992 2993 2994
3030 3027 3026 3027 3026 3024 3022 3019 3016 3015 3013 3011 3003 2995 2992 2990 2990 2992 2993 2994 2992 2992 2991 2987 2983 2982 2980 2977 2976 2977 2977 2975 2974 2972 2972 2971 2967 2964 2965 2967 2968 2969 2969 2971 2972 2971 2972 2970 2968 2969 2970 2971 2973 2974 2975 2977 2979 2979 2978 2979 2982 2983 2983 2985 2986 2985 2985 2984 2979 2977 2976 2976 2976 2976 2975 2975 2976 2978 2979 2979 2980 2982 2984 2986 2987 2988 2989 2991
3025 3021 3020 3022 3021 3019 3016 3013 3011 3010 3008 3002 2994 2989 2985 2982 2984 2987 2988 2988 2988 2987 2984 2981 2980 2977 2975 2974 2973 2973 2972 2970 2970 2969 2967 2966 2963 2959 2960 2962 2962 2964 2965 2967 2966 2966 2969 2967 2964 2964 2966 2967 2968 2968 2968 2970 2973 2974 2974 2975 2975 2976 2977 2978 2978 2978 2979 2979 2976 2974 2973 2971 2971 2973 2972 2972 2974 2974 2974 2975 2977 2978 2980 2982 2983 2985 2987 2988
3020 3016 3014 3017 3016 3013 3011 3008 3006 3004 2999 2991 2987 2983 2979 2978 2980 2981 2983 2983 2983 2982 2979 2977 2976 2973 2971 2971 2970 2970 2969 2966 2966 2965 2962 2962 2960 2958 2957 2958 2958 2959 2961 2962 2962 2962 2964 2964 2961 2961 2962 2961 2960 2959 2959 2962 2965 2966 2967 2969 2970 2971 2973 2973 2972 2972 2974 2974 2974 2973 2970 2968 2968 2969 2968 2969 2971 2971 2971 2973 2974 2975 2977 2978 2981 2983 2984 2985
3016 3010 3008 3011 3010 3007 3006 3002 2998 2996 2991 2984 2981 2978 2976 2976 2975 2975 2978 2979 2977 2976 2975 2973 2971 2969 2968 2967 2966 2967 2966 2963 2961 2960 2958 2958 2958 2957 2956 2955 2956 2957 2957 2958 2959 2959 2960 2959 2958 2957 2956 2953 2952 2954 2956 2958 2960 2960 2960 2962 2964 2966 2968 2970 2969 2967 2968 2968 2968 2969 2967 2966 2966 2966 2967 2968 2968 2969 2969 2971 2971 2972 2974 2977 2979 2981 2981 2982
3010 3004 3002 3004 3002 3001 3000 2993 2989 2989 2983 2977 2975 2974 2973 2973 2970 2970 2972 2973 2972 2970 2969 2968 2965 2963 2963 2962 2961 2962 2962 2959 2957 2955 2953 2953 2954 2956 2955 2954 2954 2954 2955 2955 2956 2957 2958 2956 2954 2952 2950 2949 2951 2953 2954 2954 2957 2958 2957 2958 2961 2961 2962 2962 2961 2962 2963 2963 2964 2966 2965 2964 2965 2965 2966 2967 2966 2967 2968 2968 2970 2971 2973 2976 2977 2978 2979 2980
3003 2998 2997 2998 2996 2996 2993 2982 2979 2980 2974 2970 2971 2969 2969 2968 2965 2965 2966 2966 2966 2964 2962 2961 2959 2957 2957 2956 2956 2956 2956 2953 2952 2951 2949 2948 2949 2951 2953 2953 2952 2952 2952 2952 2952 2954 2954 2951 2949 2948 2947 2949 2950 2950 2950 2951 2953 2953 2952 2954 2955 2954 2954 2954 2955 2958 2959 2959 2961 2963 2961 2962 2963 2964 2965 2966 2964 2965 2966 2967 2969 2970 2972 2974 2975 2976 2977 2978
2995 2990 2990 2990 2989 2989 2984 2974 2972 2971 2967 2967 2966 2963 2964 2962 2960 2960 2960 2960 2960 2959 2957 2955 2954 2953 2952 2952 2950 2950 2950 2947 2944 2945 2945 2944 2944 2946 2948 2949 2949 2948 2947 2947 2947 2949 2948 2945 2945 2945 2945 2946 2946 2945 2945 2945 2946 2946 2946 2948 2949 2949 2952 2952 2953 2956 2956 2955 2958 2958 2957 2958 2960 2961 2963 2963 2962 2963 2964 2965 2967 2968 2970 2971 2972 2974 2975 2975
2989 2983 2981 2983 2983 2980 2974 2970 2969 2965 2962 2963 2959 2957 2958 2955 2954 2957 2955 2954 2955 2954 2951 2948 2948 2949 2948 2947 2946 2944 2945 2943 2939 2940 2940 2939 2939 2941 2942 2943 2943 2942 2942 2942 2944 2944 2942 2940 2939 2939 2938 2937 2937 2937 2937 2938 2940 2940 2941 2943 2945 2947 2948 2949 2951 2952 2950 2952 2954 2952 2953 2956 2958 2958 2960 2960 2960 2961 2962 2964 2965 2966 2967 2968 2969 2969 2970 2971
2985 2978 2973 2974 2976 2973 2966 2966 2967 2960 2957 2958 2952 2951 2953 2948 2948 2953 2951 2948 2948 2948 2946 2943 2943 2944 2943 2943 2941 2939 2939 2938 2937 2936 2936 2935 2936 2936 2936 2936 2936 2936 2936 2937 2939 2938 2935 2934 2933 2933 2931 2930 2931 2933 2934 2936 2937 2937 2937 2939 2942 2943 2945 2946 2946 2945 2946 2949 2948 2946 2951 2954 2954 2956 2957 2958 2959 2960 2960 2962 2963 2963 2964 2965 2965 2965 2964 2965
2982 2974 2971 2970 2969 2965 2961 2961 2963 2958 2955 2955 2948 2945 2947 2944 2943 2946 2945 2944 2943 2942 2941 2938 2938 2939 2938 2938 2936 2933 2934 2934 2933 2933 2931 2931 2931 2931 2930 2930 2930 2931 2931 2932 2932 2932 2930 2928 2928 2929 2927 2928 2930 2931 2932 2933 2933 2934 2935 2936 2938 2940 2941 2942 2940 2940 2945 2946 2942 2944 2950 2950 2949 2953 2955 2955 2957 2958 2959 2961 2961 2962 2963 2963 2963 2963 2961 2961
2977 2970 2970 2970 2964 2959 2956 2956 2956 2954 2951 2950 2945 2941 2941 2939 2939 2939 2938 2938 2938 2937 2936 2932 2932 2934 2934 2933 2931 2928 2929 2928 2927 2928 2928 2926 2926 2925 2925 2925 2925 2927 2928 2927 2927 2927 2926 2923 2924 2925 2924 2925 2927 2927 2928 2929 2929 2930 2931 2932 2934 2936 2937 2938 2937 2939 2943 2941 2939 2944 2947 2944 2946 2951 2952 2952 2954 2955 2956 2958 2958 2959 2961 2961 2960 2960 2959 2959
2972 2965 2964 2966 2960 2953 2950 2949 2949 2946 2945 2943 2939 2936 2936 2933 2932 2934 2934 2932 2930 2931 2932 2926 2924 2929 2929 2927 2926 2924 2924 2924 2923 2924 2924 2923 2922 2922 2921 2921 2921 2922 2923 2923 2923 2924 2923 2921 2921 2922 2921 2921 2922 2923 2924 2925 2925 2925 2927 2929 2931 2932 2933 2934 2935 2937 2938 2937 2939 2942 2942 2940 2944 2948 2947 2949 2951 2951 2953 2954 2954 2955 2956 2957 2957 2957 2956 2956
2966 2961 2958 2956 2952 2947 2944 2943 2943 2939 2937 2938 2933 2930 2932 2929 2926 2928 2929 2927 2924 2923 2926 2922 2919 2922 2923 2921 2921 2919 2919 2921 2919 2918 2920 2918 2917 2918 2918 2917 2918 2918 2918 2918 2919 2920 2919 2918 2919 2920 2918 2917 2918 2919 2920 2921 2921 2922 2923 2925 2927 2928 2929 2930 2932 2933 2934 2934 2936 2938 2936 2936 2941 2944 2943 2944 2946 2947 2948 2949 2950 2951 2952 2953 2953 2953 2953 2953
2961 2958 2955 2949 2943 2941 2938 2936 2938 2933 2929 2931 2928 2925 2926 2924 2923 2923 2921 2921 2921 2918 2919 2919 2915 2915 2916 2915 2915 2914 2914 2916 2914 2913 2914 2913 2912 2913 2913 2913 2914 2914 2914 2915 2915 2916 2916 2915 2916 2918 2916 2914 2915 2916 2916 2918 2919 2918 2919 2921 2923 2924 2925 2926 2928 2929 2930 2931 2933 2933 2932 2933 2937 2940 2939 2939 2941 2942 2943 2944 2945 2946 2947 2948 2948 2949 2950 2950
2954 2951 2951 2945 2935 2933 2933 2929 2930 2928 2922 2923 2924 2921 2920 2918 2918 2919 2913 2912 2916 2915 2913 2913 2911 2910 2909 2908 2909 2911 2911 2910 2908 2907 2908 2907 2907 2908 2908 2909 2911 2912 2912 2912 2913 2913 2913 2912 2913 2914 2913 2911 2912 2913 2914 2915 2915 2913 2914 2916 2918 2921 2922 2923 2923 2925 2927 2929 2930 2929 2929 2931 2935 2936 2935 2936 2937 2938 2938 2940 2941 2941 2942 2943 2944 2944 2945 2945